This is the latest recevied weather packets stored in our database for station/object KC1TEM-13. If no packets are shown the sender has not sent any weather packets the latest 10 day(s).
| Time | Temp. | Humidity | Pressure | Rain* | Wind** | Luminosity | Snow |
|---|---|---|---|---|---|---|---|
| 1777571903 | 10° C | 95% | 1007.2 hPa | 0 mm | - | 85 W/m² | - |
| 1777571598 | 10° C | 94% | 1007.3 hPa | 0 mm | - | 74 W/m² | - |
| 1777571296 | 10° C | 94% | 1007.4 hPa | 0 mm | - | 83 W/m² | - |
| 1777570992 | 10° C | 95% | 1007.2 hPa | 0.51 mm | - | 100 W/m² | - |
| 1777570688 | 10° C | 95% | 1006.9 hPa | 0.51 mm | - | 106 W/m² | - |
| 1777570385 | 10° C | 94% | 1007.2 hPa | 0.51 mm | - | 133 W/m² | - |
| 1777570080 | 10.56° C | 95% | 1007.5 hPa | 1.27 mm | - | 119 W/m² | - |
| 1777569776 | 10.56° C | 95% | 1007.4 hPa | 0.51 mm | - | 148 W/m² | - |
| 1777569472 | 10° C | 96% | 1007.4 hPa | 0.51 mm | - | 196 W/m² | - |
| 1777569169 | 10° C | 95% | 1007.5 hPa | 1.78 mm | - | 137 W/m² | - |
| 1777568865 | 10° C | 94% | 1007.5 hPa | 2.29 mm | - | 138 W/m² | - |
| 1777568563 | 10° C | 95% | 1007.5 hPa | 3.05 mm | - | 122 W/m² | - |
| 1777568260 | 10° C | 95% | 1007.4 hPa | 2.29 mm | - | 113 W/m² | - |
| 1777567957 | 10° C | 95% | 1007.5 hPa | 0.51 mm | - | 105 W/m² | - |
| 1777567652 | 10° C | 95% | 1007.5 hPa | 0 mm | - | 86 W/m² | - |
| 1777567350 | 10° C | 96% | 1007.4 hPa | 1.78 mm | - | 102 W/m² | - |
| 1777567048 | 9.44° C | 95% | 1007.4 hPa | 2.29 mm | - | 104 W/m² | - |
| 1777566746 | 9.44° C | 96% | 1007.5 hPa | 1.78 mm | - | 109 W/m² | - |
| 1777566443 | 9.44° C | 95% | 1007.5 hPa | 0.51 mm | - | 113 W/m² | - |
| 1777566140 | 9.44° C | 95% | 1007.2 hPa | 0.51 mm | - | 81 W/m² | - |
| 1777565835 | 9.44° C | 95% | 1007.3 hPa | 1.78 mm | - | 76 W/m² | - |
| 1777565532 | 9.44° C | 95% | 1007.4 hPa | 1.78 mm | - | 91 W/m² | - |
| 1777565229 | 9.44° C | 95% | 1007.4 hPa | 0.51 mm | - | 98 W/m² | - |
| 1777564925 | 9.44° C | 95% | 1007.2 hPa | 0.51 mm | - | 80 W/m² | - |
| 1777564620 | 9.44° C | 94% | 1007.4 hPa | 0.51 mm | - | 72 W/m² | - |
* Rain latest hour (hover to see other rain measurements)
** Current wind speed in m/s (hover to see current wind gust speed)